W0KHZ Weather Reports


time (UTC)temp
C
wind
direction
speed
KPH
gust
KPH
rain 1hr
cm
rain 24hr
cm
rain mn
cm
humidity
%
barometer
mb
20260503222515 22 291 4.8 16.1 0.00 0.00 0.00 29 1002.0
20260503222033 22 295 8.0 24.1 0.00 0.00 0.00 30 1001.9
20260503221531 22 327 3.2 12.9 0.00 0.00 0.00 31 1001.9
20260503221029 22 334 3.2 20.9 0.00 0.00 0.00 30 1002.0
20260503220527 23 300 4.8 16.1 0.00 0.00 0.00 31 1002.0
20260503220025 23 298 3.2 11.3 0.00 0.00 0.00 31 1002.0
20260503215524 23 316 4.8 12.9 0.00 0.00 0.00 32 1002.1
20260503215102 23 300 6.4 16.1 0.00 0.00 0.00 32 1002.0
20260503214520 23 293 4.8 12.9 0.00 0.00 0.00 32 1002.0
20260503214018 23 307 6.4 14.5 0.00 0.00 0.00 31 1002.0
20260503213517 23 316 6.4 17.7 0.00 0.00 0.00 31 1002.0
20260503213035 23 301 6.4 16.1 0.00 0.00 0.00 31 1002.0
20260503212552 23 300 3.2 16.1 0.00 0.00 0.00 31 1002.1
20260503212030 23 315 4.8 20.9 0.00 0.00 0.00 31 1002.2
20260503211528 23 314 4.8 11.3 0.00 0.00 0.00 31 1002.2
20260503211046 23 329 3.2 12.9 0.00 0.00 0.00 32 1002.0
20260503210545 23 287 6.4 17.7 0.00 0.00 0.00 30 1002.2
20260503210023 23 306 4.8 14.5 0.00 0.00 0.00 30 1002.2
20260503205521 23 324 4.8 17.7 0.00 0.00 0.00 31 1002.2
20260503205020 23 331 4.8 11.3 0.00 0.00 0.00 32 1002.2
20260503204538 23 304 4.8 14.5 0.00 0.00 0.00 32 1002.3
20260503204016 23 297 6.4 24.1 0.00 0.00 0.00 31 1002.3
20260503203534 23 310 9.7 27.4 0.00 0.00 0.00 30 1002.2
20260503203051 23 305 6.4 22.5 0.00 0.00 0.00 33 1002.3
20260503202529 23 334 6.4 12.9 0.00 0.00 0.00 34 1002.4
20260503202027 23 331 8.0 14.5 0.00 0.00 0.00 35 1002.4
20260503201526 23 330 6.4 16.1 0.00 0.00 0.00 33 1002.4
20260503201024 23 297 11.3 29.0 0.00 0.00 0.00 34 1002.3
20260503200542 23 292 4.8 14.5 0.00 0.00 0.00 36 1002.3
20260503200021 23 305 3.2 11.3 0.00 0.00 0.00 36 1002.3
20260503195619 23 309 3.2 12.9 0.00 0.00 0.00 36 1002.5
20260503195037 23 313 4.8 12.9 0.00 0.00 0.00 35 1002.5
20260503194536 23 281 4.8 12.9 0.00 0.00 0.00 36 1002.4
20260503194033 23 271 3.2 16.1 0.00 0.00 0.00 36 1002.5
20260503193531 23 301 4.8 12.9 0.00 0.00 0.00 37 1002.4
20260503193109 22 273 3.2 9.7 0.00 0.00 0.00 37 1002.5
20260503192527 22 287 4.8 17.7 0.00 0.00 0.00 37 1002.6
20260503192025 22 270 8.0 20.9 0.00 0.00 0.00 38 1002.5
20260503191524 22 244 6.4 20.9 0.00 0.00 0.00 39 1002.6
20260503191022 22 233 3.2 12.9 0.00 0.00 0.00 39 1002.7
20260503190520 22 327 4.8 12.9 0.00 0.00 0.00 39 1002.7
20260503190019 22 230 4.8 12.9 0.00 0.00 0.00 41 1002.7
20260503185517 22 185 8.0 16.1 0.00 0.00 0.00 42 1002.8
20260503185015 22 170 3.2 9.7 0.00 0.00 0.00 42 1002.8
20260503184533 22 166 3.2 6.4 0.00 0.00 0.00 40 1002.9
20260503184050 22 238 4.8 11.3 0.00 0.00 0.00 41 1002.9
20260503183529 22 318 4.8 12.9 0.00 0.00 0.00 39 1003.0
20260503183107 21 310 4.8 11.3 0.00 0.00 0.00 41 1003.0
20260503182526 21 175 4.8 9.7 0.00 0.00 0.00 43 1003.1
20260503182024 21 185 4.8 14.5 0.00 0.00 0.00 42 1003.2
20260503181522 21 156 4.8 11.3 0.00 0.00 0.00 43 1003.2
20260503181020 21 211 3.2 9.7 0.00 0.00 0.00 43 1003.3
20260503180518 21 267 1.6 9.7 0.00 0.00 0.00 42 1003.3
20260503180017 21 167 6.4 16.1 0.00 0.00 0.00 44 1003.5
20260503175535 20 163 4.8 11.3 0.00 0.00 0.00 43 1003.5
20260503175032 20 177 4.8 9.7 0.00 0.00 0.00 43 1003.7
20260503174530 20 206 3.2 4.8 0.00 0.00 0.00 43 1003.5
20260503174028 20 284 3.2 9.7 0.00 0.00 0.00 41 1003.8
20260503173527 20 175 3.2 9.7 0.00 0.00 0.00 43 1003.6
20260503173025 20 165 4.8 12.9 0.00 0.00 0.00 44 1003.7
20260503172523 20 159 6.4 11.3 0.00 0.00 0.00 44 1003.6
20260503172021 20 159 6.4 12.9 0.00 0.00 0.00 44 1003.6
20260503171520 20 208 3.2 9.7 0.00 0.00 0.00 44 1003.7
20260503171018 19 158 3.2 9.7 0.00 0.00 0.00 43 1003.8
20260503170516 19 171 3.2 11.3 0.00 0.00 0.00 44 1004.0
20260503150530 17 154 8.0 16.1 0.00 0.00 0.00 47 1004.6
20260503131047 13 147 6.4 17.7 0.00 0.00 0.00 57 1005.3
20260503130545 13 144 6.4 14.5 0.00 0.00 0.00 58 1005.2
20260503110520 12 139 6.4 11.3 0.00 0.00 0.00 54 1005.6
20260503081517 11 85 0.0 1.6 0.00 0.00 0.00 47 1007.8
20260503081035 11 85 0.0 1.6 0.00 0.00 0.00 47 1007.9
20260503080553 11 89 0.0 4.8 0.00 0.00 0.00 48 1007.8
20260503072518 12 134 3.2 9.7 0.00 0.00 0.00 46 1008.2
20260503072016 12 203 1.6 9.7 0.00 0.00 0.00 46 1008.2
20260503071535 12 174 1.6 6.4 0.00 0.00 0.00 46 1008.4
20260503071032 12 119 1.6 6.4 0.00 0.00 0.00 46 1008.3
20260503070530 12 336 1.6 3.2 0.00 0.00 0.00 46 1008.5
20260503055023 11 81 3.2 4.8 0.00 0.00 0.00 48 1009.1
20260503054521 11 116 3.2 6.4 0.00 0.00 0.00 48 1009.2
20260503054019 11 114 3.2 4.8 0.00 0.00 0.00 48 1009.2
20260503053517 11 141 1.6 4.8 0.00 0.00 0.00 48 1009.2
20260503053036 11 123 3.2 11.3 0.00 0.00 0.00 49 1009.2
20260503052554 11 94 1.6 4.8 0.00 0.00 0.00 49 1009.2
20260503052031 11 87 0.0 4.8 0.00 0.00 0.00 49 1009.2
20260503051549 11 62 1.6 6.4 0.00 0.00 0.00 50 1009.3
20260503051028 11 59 0.0 3.2 0.00 0.00 0.00 49 1009.3
20260503050526 11 65 1.6 3.2 0.00 0.00 0.00 49 1009.3
20260503050024 11 83 3.2 4.8 0.00 0.00 0.00 49 1009.3
20260503045522 11 35 1.6 3.2 0.00 0.00 0.00 49 1009.3
20260503045021 11 0.0 0.0 0.00 0.00 0.00 49 1009.3
20260503044519 11 81 3.2 4.8 0.00 0.00 0.00 50 1009.3
20260503044017 11 96 1.6 4.8 0.00 0.00 0.00 50 1009.4
20260503043515 11 76 1.6 4.8 0.00 0.00 0.00 50 1009.5
20260503043053 11 105 1.6 4.8 0.00 0.00 0.00 52 1009.6
20260503042530 10 245 0.0 3.2 0.00 0.00 0.00 55 1009.5
20260503042029 10 218 1.6 4.8 0.00 0.00 0.00 55 1009.6
20260503041527 10 218 0.0 4.8 0.00 0.00 0.00 56 1009.6
20260503041026 10 218 1.6 4.8 0.00 0.00 0.00 57 1009.7
20260503040524 10 218 0.0 3.2 0.00 0.00 0.00 58 1009.6
20260503040022 10 0.0 0.0 0.00 0.00 0.00 58 1009.6
20260503035520 10 0.0 0.0 0.00 0.00 0.00 57 1009.7
20260503035019 10 0.0 0.0 0.00 0.00 0.00 55 1009.7
20260503034517 10 0.0 0.0 0.00 0.00 0.00 58 1009.9
20260503034035 10 0.0 0.0 0.00 0.00 0.00 58 1010.0
20260503033533 10 0.0 0.0 0.00 0.00 0.00 58 1010.0
20260503033050 10 0.0 0.0 0.00 0.00 0.00 57 1009.9
20260503032529 10 0.0 0.0 0.00 0.00 0.00 57 1010.0
20260503032047 10 0.0 0.0 0.00 0.00 0.00 56 1010.0
20260503031525 10 0.0 0.0 0.00 0.00 0.00 55 1010.3
20260503031024 10 0.0 0.0 0.00 0.00 0.00 56 1010.3
20260503030522 10 0.0 0.0 0.00 0.00 0.00 57 1010.3
20260503030020 11 0.0 0.0 0.00 0.00 0.00 55 1010.4
20260503025518 11 0.0 0.0 0.00 0.00 0.00 54 1010.3
20260503025016 11 0.0 0.0 0.00 0.00 0.00 55 1010.4
20260503024535 11 0.0 0.0 0.00 0.00 0.00 53 1010.4
20260503024032 11 0.0 0.0 0.00 0.00 0.00 53 1010.4
20260503023530 11 0.0 0.0 0.00 0.00 0.00 53 1010.5
20260503023028 11 0.0 0.0 0.00 0.00 0.00 53 1010.3
20260503022526 11 0.0 0.0 0.00 0.00 0.00 54 1010.5
20260503022045 11 0.0 0.0 0.00 0.00 0.00 53 1010.5
20260503021523 11 0.0 0.0 0.00 0.00 0.00 52 1010.5
20260503021022 11 0.0 0.0 0.00 0.00 0.00 53 1010.5
20260503020540 12 0.0 0.0 0.00 0.00 0.00 52 1010.5
20260503020018 12 0.0 0.0 0.00 0.00 0.00 51 1010.4
20260503015516 12 0.0 0.0 0.00 0.00 0.00 50 1010.4
20260503015034 12 0.0 0.0 0.00 0.00 0.00 50 1010.4
20260503014531 12 0.0 0.0 0.00 0.00 0.00 49 1010.4
20260503014029 12 0.0 0.0 0.00 0.00 0.00 47 1010.4
20260503013527 13 0.0 0.0 0.00 0.00 0.00 46 1010.4
20260503013025 13 0.0 0.0 0.00 0.00 0.00 46 1010.3
20260503012523 13 0.0 0.0 0.00 0.00 0.00 44 1010.5
20260503012022 13 0.0 0.0 0.00 0.00 0.00 45 1010.4
20260503011520 14 0.0 0.0 0.00 0.00 0.00 44 1010.5
20260503011018 15 0.0 0.0 0.00 0.00 0.00 40 1010.4
20260503010517 15 0.0 0.0 0.00 0.00 0.00 38 1010.4
20260503010035 15 218 0.0 3.2 0.00 0.00 0.00 37 1010.4
20260503005532 15 0.0 0.0 0.00 0.00 0.00 37 1010.4
20260503005030 15 0.0 0.0 0.00 0.00 0.00 37 1010.5
20260503004528 15 0.0 0.0 0.00 0.00 0.00 36 1010.4
20260503004026 15 0.0 0.0 0.00 0.00 0.00 36 1010.5
20260503003524 15 219 0.0 3.2 0.00 0.00 0.00 35 1010.5
20260503003023 16 219 0.0 1.6 0.00 0.00 0.00 35 1010.6
20260503002521 16 219 0.0 1.6 0.00 0.00 0.00 35 1010.5
20260503002039 16 219 1.6 3.2 0.00 0.00 0.00 35 1010.6
20260503001517 16 220 1.6 4.8 0.00 0.00 0.00 35 1010.6
20260503001035 16 235 1.6 4.8 0.00 0.00 0.00 34 1010.6
20260503000532 16 260 1.6 4.8 0.00 0.00 0.00 34 1010.8
20260503000030 16 229 3.2 4.8 0.00 0.00 0.00 34 1010.8
20260502235528 16 261 1.6 9.7 0.00 0.00 0.00 34 1010.9
20260502235026 16 317 3.2 9.7 0.00 0.00 0.00 34 1011.0
20260502234525 16 186 1.6 4.8 0.00 0.00 0.00 35 1011.0
20260502234023 16 204 3.2 12.9 0.00 0.00 0.00 34 1011.0
20260502233521 16 149 1.6 6.4 0.00 0.00 0.00 33 1011.1
20260502233019 16 195 1.6 6.4 0.00 0.00 0.00 33 1011.2
20260502232518 16 239 4.8 12.9 0.00 0.00 0.00 33 1011.3
20260502232016 17 298 3.2 6.4 0.00 0.00 0.00 33 1011.2
20260502231535 17 292 3.2 11.3 0.00 0.00 0.00 33 1011.3
20260502231032 17 207 1.6 4.8 0.00 0.00 0.00 33 1011.2
20260502230530 17 191 3.2 6.4 0.00 0.00 0.00 33 1011.2
20260502230028 17 213 3.2 17.7 0.00 0.00 0.00 33 1011.4
20260502225527 17 296 4.8 12.9 0.00 0.00 0.00 33 1011.4
20260502225025 17 301 1.6 11.3 0.00 0.00 0.00 33 1011.4
20260502224523 17 299 3.2 9.7 0.00 0.00 0.00 33 1011.5
20260502224041 17 203 3.2 11.3 0.00 0.00 0.00 33 1011.7
20260502223520 17 209 4.8 14.5 0.00 0.00 0.00 33 1011.7
20260502223018 17 196 3.2 12.9 0.00 0.00 0.00 33 1011.7